Location: Gull Harbor
(47.1000°N, 122.9000°W)
Time: 17:33:53
(UTC-08:00)

X-37B - Visible Passes

Search period start: 03 December 2021 00:00
Search period end: 13 December 2021 00:00
Orbit: 330 x 341 km, 45.0° (Epoch: 20 November)

Date Brightness Start Highest point End Pass type
(mag) Time Alt. Az. Time Alt. Az. Time Alt. Az.
06 Dec 2.8 18:04:36 10° S 18:05:51 13° SSE 18:05:51 13° SSE visible
07 Dec 2.3 18:23:50 10° SW 18:25:30 22° S 18:25:30 22° S visible
08 Dec 2.8 17:10:03 10° S 17:11:31 13° SSE 17:12:59 10° ESE visible
08 Dec 2.7 18:43:48 10° WSW 18:45:05 22° SW 18:45:05 22° SW visible
09 Dec 2.0 17:29:16 10° SW 17:31:41 24° SSE 17:33:25 15° ESE visible
09 Dec 3.6 19:04:04 10° WSW 19:04:38 15° WSW 19:04:38 15° WSW visible
10 Dec 1.2 17:49:14 10° WSW 17:51:58 40° SSE 17:52:57 28° ESE visible
11 Dec 0.6 18:09:29 10° WSW 18:12:19 54° S 18:12:29 53° SSE visible
12 Dec 1.3 16:54:39 10° WSW 16:57:23 40° SSE 17:00:07 10° E visible
12 Dec 1.5 18:29:52 10° W 18:32:02 41° SW 18:32:02 41° SW visible
